Regional Weather Roundup
Issued by NWS Kansas City/Pleasant Hill, MO

Home | Current Version | Previous Version | Graphics & Text | Print | Product List | Glossary Off
Versions: 1 2 3 4 5 6 7 8 9 10 11 12 13 14 15 16 17 18 19 20 21 22 23 24 25 26 27 28 29 30 31 32 33 34 35 36 37 38 39 40 41 42 43 44 45 46 47 48 49 50

000
ASUS43 KEAX 272104
RWREAX

WEATHER ROUNDUP FOR EASTERN KANSAS AND NORTHWEST MISSOURI
NATIONAL WEATHER SERVICE KANSAS CITY/PLEASANT HILL MO
300 PM CST FRI FEB 27 2015

KSZ040-057-103>105-MOZ028-029-037-043-272200-
...KANSAS CITY METROPOLITAN AREA...

CITY           SKY/WX    TMP DP  RH WIND       PRES   REMARKS
K.C. INTL      CLOUDY    17   0  47 VRB5      30.55F WCI  10
K.C. DOWNTOWN  PTSUNNY   18   0  45 VRB5      30.58F WCI  11
LEES SUMMIT    PTSUNNY   18   0  45 NE5       30.56F WCI  11
OLATHE - IXD   CLOUDY    19  -1  41 NE5       30.54F WCI  12
OLATHE - OJC   PTSUNNY   18  -2  41 E5        30.53F WCI  11
LAWRENCE       CLOUDY    17  -1  45 NE7       30.57F WCI   8

$$

MOZ001>008-011>017-020>025-030>033-038>040-044>046-053-054-272200-
...NORTHERN AND CENTRAL MISSOURI...

CITY           SKY/WX    TMP DP  RH WIND       PRES   REMARKS
ST. JOSEPH     MOSUNNY   19   0  43 MISG      30.57F
MOSBY          MOCLDY    18   1  49 SE3       30.58F
WARRENSBURG    PTSUNNY   21   1  42 E5        30.58F WCI  15
WHITEMAN AFB   NOT AVBL
CLINTON        PTSUNNY   21   3  45 NE3       30.58F
SEDALIA        MOSUNNY   21   0  39 E5        30.58F WCI  15
WARSAW         NOT AVBL
MARSHALL       PTSUNNY   19   5  53 N7        30.60F WCI  10
CHILLICOTHE      N/A     18   3  52 N6        30.60F WCI  10
MOBERLY        MOSUNNY   18   0  45 NE5       30.60F WCI  11
KIRKSVILLE     SUNNY     17   3  54 CALM      30.58F

$$

MOZ041-047>049-056>058-063>065-088>090-097-272200-
...EASTERN AND SOUTHERN MISSOURI...

CITY           SKY/WX    TMP DP  RH WIND       PRES   REMARKS
ST. LOUIS INTL PTSUNNY   18  -1  43 CALM      30.63F
SPIRIT OF STL  SUNNY     19  -1  41 N6        30.62F WCI  11
COLUMBIA       MOSUNNY   22   2  42 N3        30.57F
JEFFERSON CITY SUNNY     23  -2  33 NW3       30.60F
MEXICO         MOSUNNY   18   5  57 N3        30.60F
HANNIBAL       SUNNY     18  -8  32 CALM      30.63S
ROLLA          PTSUNNY   20  -2  38 NE7       30.51F WCI  11
LEBANON        CLOUDY    19   0  42 N5        30.52S WCI  13
OSAGE BEACH    CLOUDY    21   0  39 NE5       30.56R WCI  15
SPRINGFIELD    CLOUDY    22   3  44 N5        30.51S WCI  16
BRANSON        CLOUDY    21   1  42 CALM      30.53S
NEVADA         CLOUDY    19   1  45 E6        30.57F WCI  11
JOPLIN         CLOUDY    21   1  41 NE6       30.54F WCI  13
WEST PLAINS    CLOUDY    20  -2  38 E5        30.52R WCI  13

$$

IAZ060-094-KSZ022-034>040-054-083-096-NEZ052-066-093-272200-
...KANSAS...SOUTHEAST NEBRASKA AND IOWA...

CITY           SKY/WX    TMP DP  RH WIND       PRES   REMARKS
TOPEKA         CLOUDY    18   0  45 E3        30.56F
MANHATTAN      CLOUDY    17   0  47 E3        30.54S
EMPORIA        CLOUDY    18   0  45 VRB5      30.52S WCI  11
CHANUTE        CLOUDY    19   3  49 SE9       30.54F WCI   8
WICHITA        LGT SNOW  16   8  71 E3        30.50F
OMAHA          MOSUNNY   18   1  47 CALM      30.55F
LINCOLN        SUNNY     20  -1  40 SE6       30.51F WCI  12
FALLS CITY     MOSUNNY   20  -2  38 CALM      30.54F
LAMONI         SUNNY     12   0  58 CALM      30.56F
DES MOINES     MOSUNNY   12  -1  56 W5        30.59F WCI   4

$$




USA.gov is the U.S. government's official web portal to all federal, state and local government web resources and services.